1489053601.13,8312,8.0,73070.0,-2.69,-11.01,-12.61,0,*60
1489053602.4,8313,8.0,73068.3,-2.69,-11.07,-12.35,0,*66
1489053603.61,8314,8.0,73068.3,-2.73,-11.41,-12.39,0,*64
1489053604.87,8315,8.0,73070.5,-2.69,-10.67,-12.07,0,*66
1489053606.08,8316,8.0,73072.8,-2.69,-11.01,-13.07,0,*65
1489053607.35,8317,8.0,73078.8,-2.67,-11.37,-13.83,0,*63
1489053608.61,8318,8.0,73080.0,-2.67,-11.45,-14.05,0,*60
1489053609.86,8319,8.0,73080.3,-2.69,-11.45,-14.01,0,*6B
1489053611.12,8320,8.0,73086.0,-2.69,-11.59,-14.01,0,*6C
1489053612.37,8321,8.0,73080.0,-2.67,-12.43,-14.47,0,*69
1489053613.6,8322,8.0,73086.8,-2.65,-12.57,-14.15,0,*6A
1489053614.83,8323,8.0,73084.3,-2.65,-13.65,-14.51,0,*6B
1489053616.03,8324,8.0,73084.0,-2.65,-14.11,-13.69,0,*64
1489053617.25,8325,8.0,73088.0,-2.65,-13.15,-11.85,0,*66
1489053618.47,8326,8.0,73086.0,-2.65,-12.03,-10.71,0,*69
1489053619.73,8327,8.0,73076.8,-2.67,-11.15,-10.71,0,*6E
1489053620.96,8328,8.0,73082.0,-2.65,-10.63,-10.31,0,*67
1489053622.22,8329,8.0,73084.0,-2.67,-10.79,-10.19,0,*65
1489053623.45,8330,8.0,73086.3,-2.65,-11.07,-9.71,0,*51
1489053624.67,8331,8.0,73076.3,-2.67,-10.23,-8.89,0,*53
1489053625.9,8332,8.0,73082.5,-2.67,-9.83,-8.59,0,*6F
1489053627.14,8333,8.0,73074.8,-2.67,-9.37,-8.55,0,*6D
1489053628.39,8334,8.0,73080.3,-2.67,-9.15,-8.29,0,*61
1489053629.58,8335,8.0,73090.3,-2.73,-8.33,-7.83,0,*6F
1489053630.8,8336,8.0,73090.8,-2.69,-7.65,-7.49,0,*6D
1489053632.05,8337,8.0,73082.0,-2.69,-7.95,-7.91,0,*66
1489053633.29,8338,8.0,73074.5,-2.73,-7.65,-7.69,0,*6A
1489053634.5,8339,8.0,73070.0,-2.73,-7.53,-7.65,0,*62
1489053635.76,8340,8.0,73066.3,-2.69,-7.65,-8.07,0,*69
1489053636.97,8341,8.0,73068.0,-2.73,-8.07,-8.75,0,*6D
1489053638.19,8342,8.0,73068.5,-2.75,-8.45,-9.31,0,*6F
1489053639.42,8343,8.0,73068.5,-2.75,-8.89,-9.75,0,*6E
1489053640.67,8344,8.0,73072.3,-2.75,-9.01,-9.57,0,*68
1489053641.94,8345,8.0,73072.8,-2.77,-9.11,-9.45,0,*69
1489053643.16,8346,8.0,73068.3,-2.77,-8.93,-9.31,0,*62
1489053644.41,8347,8.0,73064.3,-2.77,-9.05,-9.45,0,*6E
1489053645.63,8348,8.0,73058.5,-2.79,-8.97,-9.45,0,*65
1489053646.82,8349,8.0,73050.5,-2.79,-8.37,-9.19,0,*67
1489053648.03,8350,8.0,73058.0,-2.81,-8.75,-9.97,0,*68
1489053649.27,8351,8.0,73068.5,-2.81,-8.85,-10.19,0,*58
1489053650.54,8352,8.0,73070.3,-2.81,-9.11,-10.63,0,*5A
1489053651.75,8353,8.0,73076.8,-2.79,-8.93,-10.57,0,*50
1489053653.0,8354,8.0,73076.8,-2.81,-8.97,-10.67,0,*57
1489053654.21,8355,8.0,73082.3,-2.79,-8.93,-10.45,0,*55
1489053655.44,8356,8.0,73076.8,-2.79,-9.11,-10.57,0,*5E
1489053656.64,8357,8.0,73076.0,-2.79,-9.19,-11.01,0,*55
1489053657.91,8358,8.0,73076.8,-2.81,-9.11,-11.33,0,*54
1489053659.14,8359,8.0,73076.0,-2.79,-9.31,-12.53,0,*55
1489053660.39,8360,8.0,73074.5,-2.81,-10.35,-14.47,0,*67
1489053661.67,8361,8.0,73070.8,-2.81,-10.79,-15.21,0,*6F
1489053662.94,8362,8.0,73070.0,-2.81,-11.51,-15.35,0,*62
1489053664.2,8363,8.0,73072.3,-2.79,-11.55,-15.43,0,*61
1489053665.48,8364,8.0,73076.5,-2.81,-11.85,-16.17,0,*6E
1489053666.73,8365,8.0,73072.8,-2.81,-12.97,-18.01,0,*66
1489053667.97,8366,8.0,73086.0,-2.81,-13.29,-18.25,0,*67
1489053669.17,8367,8.0,73074.0,-2.79,-14.29,-18.49,0,*6C
1489053670.39,8368,8.0,73072.0,-2.81,-14.29,-18.17,0,*6F
1489053671.62,8369,8.0,73060.5,-2.83,-14.79,-18.65,0,*6C
1489053672.89,8370,8.0,73080.5,-2.85,-14.75,-17.11,0,*62
1489053674.12,8371,8.0,73074.5,-2.89,-13.69,-14.69,0,*69
1489053675.33,8372,8.0,73066.5,-2.87,-12.97,-13.11,0,*6C
1489053676.61,8373,8.0,73068.5,-2.89,-11.73,-12.71,0,*6D
1489053677.84,8374,8.0,73068.3,-2.87,-11.67,-13.19,0,*6E
1489053679.12,8375,8.0,73062.3,-2.89,-11.81,-14.05,0,*63
1489053680.37,8376,8.0,73064.3,-2.89,-12.65,-14.65,0,*6F
1489053681.6,8377,8.0,73074.3,-2.95,-13.33,-14.61,0,*65
1489053682.85,8378,8.0,73084.8,-2.95,-13.01,-13.33,0,*6B
1489053684.08,8379,8.0,73060.8,-2.95,-12.89,-12.57,0,*68
1489053685.34,8380,8.0,73050.8,-2.95,-11.97,-11.63,0,*66
1489053686.6,8381,8.0,73066.3,-2.97,-11.55,-11.23,0,*6F
1489053687.86,8382,8.0,73062.3,-2.97,-11.23,-10.67,0,*6C
1489053689.11,8383,8.0,73068.0,-2.97,-11.51,-10.27,0,*6C
1489053690.36,8384,8.0,73070.8,-2.97,-10.49,-9.41,0,*5B
1489053691.57,8385,8.0,73066.5,-2.99,-9.67,-9.15,0,*61
1489053692.78,8386,8.06,73072.5,-2.97,-9.27,-8.71,0,*6B
1489053693.97,8387,8.0,73066.0,-2.99,-9.27,-8.63,0,*67
1489053695.16,8388,8.06,73068.8,-2.99,-9.19,-8.63,0,*65
1489053696.36,8389,8.0,73074.3,-2.99,-8.85,-8.45,0,*64
1489053697.58,8390,8.0,73062.8,-2.99,-8.63,-8.51,0,*61
1489053698.78,8391,8.0,73068.3,-2.99,-8.75,-8.85,0,*6E
1489053700.02,8392,8.0,73064.5,-2.97,-9.19,-9.45,0,*65
1489053701.24,8393,8.0,73070.5,-2.99,-9.05,-9.57,0,*64
1489053702.44,8394,8.0,73056.3,-2.99,-8.89,-9.67,0,*65
1489053703.67,8395,8.0,73060.8,-3.03,-9.37,-10.45,0,*5A
1489053704.9,8396,8.06,73068.3,-3.03,-9.49,-10.97,0,*5F
1489053706.15,8397,8.0,73070.0,-3.01,-9.71,-11.85,0,*55
1489053707.4,8398,8.0,73060.5,-3.01,-9.89,-11.97,0,*5E
1489053708.63,8399,8.0,73066.0,-3.01,-10.15,-12.25,0,*68
1489053709.83,8400,8.0,73054.8,-3.03,-10.01,-12.93,0,*65
1489053711.06,8401,8.06,73060.3,-3.03,-10.15,-14.05,0,*68
1489053712.27,8402,8.0,73062.5,-3.03,-11.15,-15.71,0,*68
1489053713.52,8403,8.0,73060.3,-3.03,-12.07,-16.31,0,*6E
1489053714.76,8404,8.06,73054.5,-3.03,-12.35,-15.95,0,*65
1489053715.99,8405,8.0,73056.8,-3.03,-12.53,-15.11,0,*68
1489053717.2,8406,8.06,73066.5,-3.03,-12.25,-14.23,0,*6A
1489053718.42,8407,8.06,73068.8,-3.03,-11.81,-13.69,0,*6F
1489053719.7,8408,8.06,73068.0,-3.01,-11.29,-13.79,0,*61
1489053720.95,8409,8.0,73058.5,-3.03,-12.07,-14.93,0,*6E
1489053722.21,8410,8.0,73062.8,-3.03,-12.71,-14.83,0,*66
1489053723.47,8411,8.0,73058.3,-3.03,-11.93,-14.05,0,*66
1489053724.67,8412,8.0,73066.0,-3.03,-11.15,-13.69,0,*66
1489053725.87,8413,8.0,73066.0,-3.03,-11.23,-14.11,0,*6A
1489053727.12,8414,8.06,73076.3,-3.03,-11.37,-14.05,0,*6D
1489053728.36,8415,8.0,73078.0,-3.01,-11.41,-14.23,0,*6B
1489053729.61,8416,8.0,73076.8,-2.99,-11.97,-14.75,0,*60
1489053730.87,8417,8.06,73078.8,-2.99,-11.63,-14.47,0,*6B
1489053732.09,8418,8.0,73070.5,-2.99,-12.21,-14.89,0,*63
1489053733.3,8419,8.06,73078.8,-2.99,-12.29,-14.89,0,*6A
1489053734.56,8420,8.0,73070.0,-2.97,-12.79,-15.53,0,*6D
1489053735.84,8421,8.06,73060.0,-2.97,-13.33,-15.39,0,*6F
1489053737.04,8422,8.0,73066.8,-2.99,-13.15,-14.33,0,*6D
1489053738.32,8423,8.06,73074.8,-2.97,-12.53,-12.79,0,*69
1489053739.58,8424,8.06,73068.8,-2.99,-11.63,-11.63,0,*68
1489053740.83,8425,8.06,73066.3,-2.97,-11.37,-11.23,0,*62
1489053742.09,8426,8.0,73062.8,-2.97,-11.07,-10.93,0,*68
1489053743.35,8427,8.06,73070.5,-2.97,-10.71,-10.27,0,*66
1489053744.55,8428,8.0,73068.5,-2.99,-10.27,-10.09,0,*68
1489053745.76,8429,8.06,73072.0,-2.97,-9.89,-9.67,0,*6B
1489053747.0,8430,8.06,73066.3,-2.97,-10.09,-9.57,0,*50
1489053748.18,8431,8.06,73074.8,-2.99,-9.89,-9.31,0,*6F
1489053749.37,8432,8.0,73068.8,-2.99,-9.19,-8.71,0,*60
1489053750.59,8433,8.06,73074.5,-2.99,-9.15,-8.59,0,*67
1489053751.83,8434,8.06,73070.3,-2.97,-8.93,-8.51,0,*69
1489053753.02,8435,8.0,73072.5,-2.99,-9.19,-8.59,0,*6D
1489053754.22,8436,8.06,73076.8,-2.99,-8.85,-8.25,0,*61
1489053755.44,8437,8.06,73072.8,-2.99,-8.45,-7.91,0,*6C
1489053756.64,8438,8.06,73074.5,-2.99,-8.45,-7.83,0,*60
1489053757.86,8439,8.06,73070.0,-2.99,-8.25,-7.77,0,*6C
1489053759.11,8440,8.06,73072.3,-3.01,-8.25,-7.61,0,*65
1489053760.35,8441,8.06,73068.0,-3.01,-8.29,-7.73,0,*6B
1489053761.63,8442,8.06,73080.0,-3.01,-8.11,-7.73,0,*63
1489053762.87,8443,8.06,73078.5,-3.01,-7.87,-7.69,0,*69
1489053764.11,8444,8.06,73082.8,-3.01,-7.95,-7.83,0,*69
1489053765.33,8445,8.0,73078.5,-3.03,-7.83,-7.69,0,*69
1489053766.55,8446,8.06,73078.8,-3.03,-7.87,-7.95,0,*6D
1489053767.76,8447,8.06,73082.0,-3.03,-7.83,-7.95,0,*68
1489053769.01,8448,8.06,73084.5,-3.03,-7.73,-7.95,0,*68
1489053770.23,8449,8.0,73086.8,-3.03,-7.95,-7.87,0,*62
1489053771.44,8450,8.06,73086.5,-3.05,-7.87,-7.87,0,*6F
1489053772.68,8451,8.06,73084.3,-3.05,-6.97,-6.85,0,*6D
1489053773.9,8452,8.06,73078.8,-3.07,-7.57,-7.53,0,*6B
1489053775.14,8453,8.06,73072.8,-3.05,-7.61,-7.49,0,*66
1489053776.41,8454,8.06,73074.0,-3.05,-7.73,-7.77,0,*6F
1489053777.68,8455,8.0,73064.8,-3.05,-7.65,-7.73,0,*6D
1489053778.92,8456,8.06,73064.0,-3.07,-7.77,-7.91,0,*63
1489053780.11,8457,8.0,73066.5,-3.07,-8.45,-8.59,0,*67
1489053781.3,8458,8.06,73068.0,-3.07,-8.37,-8.59,0,*6D
1489053782.54,8459,8.06,73060.5,-3.07,-7.69,-7.91,0,*63
1489053783.76,8460,8.06,73060.0,-3.07,-7.69,-7.83,0,*6A
1489053784.98,8461,8.06,73060.8,-3.09,-8.25,-8.33,0,*66
1489053786.17,8462,8.06,73066.8,-3.11,-8.29,-8.37,0,*64
1489053787.39,8463,8.0,73060.5,-3.09,-8.21,-8.21,0,*63
1489053788.58,8464,8.06,73066.8,-3.11,-8.29,-8.37,0,*62
1489053789.77,8465,8.06,73064.3,-3.11,-8.25,-8.29,0,*60
1489053791.01,8466,8.06,73066.3,-3.13,-8.25,-8.51,0,*6E
1489053792.28,8467,8.06,73068.5,-3.17,-7.73,-7.91,0,*64
1489053793.55,8468,8.06,73068.0,-3.13,-7.61,-7.73,0,*60
1489053794.76,8469,8.06,73062.3,-3.17,-8.21,-8.33,0,*65
1489053796.03,8470,8.06,73062.0,-3.17,-7.77,-7.77,0,*6E
1489053797.3,8471,8.06,73066.3,-3.17,-7.77,-7.77,0,*6F
1489053798.57,8472,8.0,73066.3,-3.17,-8.11,-7.91,0,*6B
1489053799.83,8473,8.06,73066.0,-3.17,-8.11,-7.99,0,*62
1489053801.08,8474,8.06,73060.3,-3.13,-7.57,-7.49,0,*61
1489053802.32,8475,8.06,73064.3,-3.17,-7.91,-7.87,0,*6C
1489053803.56,8476,8.06,73064.0,-3.17,-8.29,-8.11,0,*63
1489053804.78,8477,8.06,73064.0,-3.21,-8.25,-8.17,0,*6D
1489053806.02,8478,8.06,73062.8,-3.19,-8.11,-7.99,0,*67
1489053807.24,8479,8.06,73070.5,-3.21,-8.37,-8.33,0,*66
1489053808.5,8480,8.06,73070.0,-3.21,-8.03,-8.03,0,*64
1489053809.72,8481,8.06,73074.8,-3.23,-8.17,-8.07,0,*66
1489053810.98,8482,8.06,73068.3,-3.25,-8.51,-8.51,0,*62
1489053812.25,8483,8.06,73072.0,-3.25,-7.95,-7.99,0,*6F
1489053813.5,8484,8.06,73064.0,-3.27,-7.73,-7.73,0,*66
1489053814.71,8485,8.06,73060.8,-3.27,-7.87,-7.99,0,*68
1489053815.92,8486,8.06,73062.5,-3.27,-7.43,-7.53,0,*65
1489053817.14,8487,8.06,73064.8,-3.27,-6.97,-7.11,0,*6A
1489053818.36,8488,8.06,73060.8,-3.27,-6.81,-6.93,0,*69
1489053819.57,8489,8.06,73064.3,-3.27,-6.69,-6.93,0,*6E
1489053820.78,8490,8.06,73068.3,-3.27,-6.85,-7.05,0,*6A
1489053822.0,8491,8.06,73072.8,-3.25,-6.59,-6.81,0,*65
1489053823.2,8492,8.0,73068.8,-3.23,-6.59,-6.81,0,*60
1489053824.44,8493,8.06,73068.3,-3.25,-6.77,-7.01,0,*62
1489053825.64,8494,8.06,73072.0,-3.23,-6.77,-7.15,0,*66
1489053826.85,8495,8.06,73076.8,-3.23,-6.85,-7.27,0,*6B
1489053828.06,8496,8.06,73078.5,-3.23,-7.69,-8.33,0,*61
1489053829.3,8497,8.06,73064.5,-3.25,-8.41,-9.37,0,*66
1489053830.54,8498,8.06,73066.8,-3.25,-8.29,-9.57,0,*61
1489053831.77,8499,8.06,73064.8,-3.25,-8.63,-10.19,0,*5C
1489053833.02,8500,8.06,73066.3,-3.25,-9.23,-10.71,0,*56
1489053834.24,8501,8.06,73060.8,-3.29,-9.93,-11.41,0,*52
1489053835.5,8502,8.06,73056.8,-3.29,-10.19,-11.55,0,*6E
1489053836.75,8503,8.0,73058.5,-3.33,-10.27,-11.73,0,*6D
1489053838.01,8504,8.06,73060.0,-3.35,-10.63,-12.07,0,*6C
1489053839.24,8505,8.06,73056.0,-3.35,-10.35,-11.77,0,*6A
1489053840.48,8506,8.06,73058.5,-3.35,-10.41,-12.03,0,*6A
1489053841.7,8507,8.06,73058.5,-3.39,-11.11,-12.75,0,*62
1489053842.96,8508,8.06,73054.0,-3.39,-11.93,-13.61,0,*63
1489053844.22,8509,8.06,73060.3,-3.37,-11.89,-12.97,0,*6F
1489053845.47,8510,8.06,73060.0,-3.43,-12.03,-12.57,0,*69
1489053846.72,8511,8.06,73062.3,-3.45,-11.37,-11.63,0,*6E
1489053847.97,8512,8.06,73062.3,-3.43,-11.33,-11.15,0,*6E
1489053849.22,8513,8.06,73050.8,-3.45,-11.33,-11.07,0,*6A
1489053850.42,8514,8.06,73058.3,-3.45,-10.49,-10.05,0,*62
1489053851.65,8515,8.06,73058.5,-3.45,-9.83,-9.53,0,*66
1489053852.91,8516,8.06,73056.3,-3.47,-9.83,-9.53,0,*67
1489053854.14,8517,8.06,73062.0,-3.47,-9.53,-9.23,0,*6C
1489053855.41,8518,8.06,73058.5,-3.47,-9.41,-9.41,0,*64
1489053856.65,8519,8.06,73062.3,-3.49,-9.49,-9.83,0,*6D
1489053857.89,8520,8.06,73060.3,-3.49,-9.41,-9.83,0,*6F
1489053859.12,8521,8.06,73058.3,-3.49,-9.05,-9.61,0,*62
1489053860.34,8522,8.06,73062.8,-3.51,-9.05,-9.75,0,*6D
1489053861.53,8523,8.06,73070.8,-3.53,-9.19,-9.89,0,*60
1489053862.81,8524,8.06,73068.5,-3.51,-9.15,-9.83,0,*63
1489053864.03,8525,8.06,73064.8,-3.51,-9.05,-9.89,0,*69
1489053865.26,8526,8.06,73060.8,-3.53,-9.45,-10.19,0,*5D
1489053866.5,8527,8.06,73064.8,-3.53,-9.49,-10.19,0,*50
1489053867.69,8528,8.06,73058.3,-3.53,-9.31,-9.79,0,*6E
1489053868.93,8529,8.06,73058.8,-3.53,-8.81,-9.11,0,*6B
1489053870.16,8530,8.06,73064.8,-3.51,-8.93,-9.05,0,*67
1489053871.4,8531,8.06,73072.0,-3.51,-8.37,-8.81,0,*65
1489053872.64,8532,8.06,73060.8,-3.51,-9.19,-9.83,0,*68
1489053873.84,8533,8.06,73058.3,-3.53,-9.67,-10.49,0,*5C
1489053875.05,8534,8.06,73060.8,-3.53,-10.35,-11.41,0,*6D
1489053876.32,8535,8.06,73056.8,-3.55,-10.97,-12.71,0,*62
1489053877.56,8536,8.06,73058.8,-3.55,-11.73,-13.23,0,*6C
1489053878.81,8537,8.06,73056.8,-3.55,-11.73,-13.23,0,*6D
1489053880.02,8538,8.06,73062.8,-3.57,-12.21,-13.55,0,*65
1489053881.26,8539,8.06,73062.8,-3.57,-12.15,-13.19,0,*6B
1489053882.52,8540,8.06,73060.8,-3.59,-12.35,-13.55,0,*61
1489053883.76,8541,8.06,73064.3,-3.61,-12.61,-13.87,0,*65
1489053884.99,8542,8.06,73062.5,-3.59,-12.47,-14.19,0,*69
1489053886.23,8543,8.06,73068.5,-3.61,-12.93,-14.79,0,*6C
1489053887.45,8544,8.06,73072.8,-3.65,-13.15,-14.93,0,*64
1489053888.72,8545,8.06,73074.3,-3.65,-14.05,-15.01,0,*69
1489053889.98,8546,8.06,73072.0,-3.67,-14.15,-14.43,0,*6E
1489053891.24,8547,8.06,73072.0,-3.67,-14.15,-13.83,0,*64
1489053892.52,8548,8.06,73068.5,-3.67,-13.83,-13.37,0,*6C
1489053893.76,8549,8.06,73066.0,-3.67,-13.23,-13.07,0,*64
1489053894.99,8550,8.06,73068.0,-3.67,-12.93,-12.93,0,*6A
1489053896.23,8551,8.06,73070.3,-3.67,-12.93,-13.11,0,*60
1489053897.45,8552,8.06,73080.5,-3.69,-13.01,-13.15,0,*63
1489053898.71,8553,8.06,73074.0,-3.69,-12.61,-12.75,0,*62
1489053899.97,8554,8.06,73074.8,-3.69,-12.71,-12.71,0,*60
1489053901.2,8555,8.06,73080.5,-3.69,-12.47,-12.61,0,*65
1489053902.44,8556,8.06,73080.8,-3.69,-12.35,-12.29,0,*6F
1489053903.68,8557,8.06,73082.0,-3.69,-12.25,-11.89,0,*66
1489053904.93,8558,8.06,73086.5,-3.69,-11.73,-11.73,0,*6C
1489053906.18,8559,8.06,73078.0,-3.69,-11.73,-12.11,0,*6A
1489053907.44,8560,8.06,73082.5,-3.65,-12.07,-12.57,0,*6E
1489053908.67,8561,8.06,73078.3,-3.67,-12.25,-13.15,0,*6A
1489053909.87,8562,8.06,73080.5,-3.65,-12.43,-13.65,0,*6C
1489053911.1,8563,8.06,73078.0,-3.65,-12.71,-13.93,0,*65
1489053912.31,8564,8.06,73078.0,-3.65,-12.97,-14.15,0,*63
1489053913.51,8565,8.06,73084.0,-3.61,-13.15,-14.37,0,*6D
1489053914.74,8566,8.06,73078.8,-3.65,-13.43,-14.93,0,*67
1489053915.95,8567,8.06,73082.0,-3.65,-14.65,-15.53,0,*68
1489053917.21,8568,8.06,73076.8,-3.67,-15.15,-15.43,0,*62
1489053918.44,8569,8.06,73076.0,-3.65,-15.01,-15.25,0,*64
1489053919.67,8570,8.06,73076.8,-3.65,-15.95,-15.57,0,*64
1489053920.93,8571,8.06,73052.3,-3.69,-15.35,-14.55,0,*60
1489053922.16,8572,8.06,73048.0,-3.67,-15.25,-14.37,0,*68
1489053923.37,8573,8.06,73060.0,-3.69,-14.33,-12.97,0,*6D
1489053924.62,8574,8.06,73058.5,-3.71,-13.29,-12.03,0,*62
1489053925.85,8575,8.06,73062.0,-3.71,-12.43,-11.01,0,*6F
1489053927.13,8576,8.06,73058.3,-3.73,-11.81,-11.07,0,*65
1489053928.39,8577,8.06,73058.5,-3.73,-11.19,-10.79,0,*6D
1489053929.65,8578,8.06,73058.3,-3.73,-10.79,-10.35,0,*6D
1489053930.91,8579,8.06,73066.5,-3.75,-10.79,-10.41,0,*69
1489053932.13,8580,8.06,73080.3,-3.77,-10.31,-10.05,0,*61
1489053933.33,8581,8.06,73078.3,-3.79,-9.71,-9.75,0,*6D
1489053934.53,8582,8.06,73068.5,-3.79,-9.79,-10.01,0,*5D
1489053935.73,8583,8.06,73072.0,-3.79,-9.93,-10.15,0,*5D
1489053936.92,8584,8.06,73070.5,-3.79,-9.75,-9.79,0,*60
1489053938.17,8585,8.06,73068.8,-3.81,-9.75,-9.53,0,*6E
1489053939.39,8586,8.06,73078.5,-3.81,-8.97,-9.01,0,*67
1489053940.64,8587,8.06,73084.3,-3.83,-9.11,-9.15,0,*6E
1489053941.89,8588,8.06,73084.5,-3.81,-9.11,-8.97,0,*68
1489053943.09,8589,8.06,73092.0,-3.79,-9.61,-9.31,0,*64
1489053944.3,8590,8.06,73090.0,-3.79,-9.57,-8.93,0,*60
1489053945.49,8591,8.06,73090.0,-3.79,-10.19,-9.31,0,*5A
1489053946.71,8592,8.06,73088.0,-3.79,-10.45,-9.11,0,*52
1489053947.94,8593,8.06,73084.0,-3.79,-10.71,-9.05,0,*51
1489053949.12,8594,8.06,73088.5,-3.79,-10.53,-8.67,0,*53
1489053950.35,8595,8.06,73090.8,-3.79,-9.57,-7.99,0,*60
1489053951.55,8596,8.06,73086.8,-3.79,-9.05,-7.87,0,*6B
1489053952.74,8597,8.06,73078.8,-3.83,-8.97,-8.21,0,*66
1489053953.93,8598,8.06,73078.8,-3.83,-8.67,-8.29,0,*6E
1489053955.14,8599,8.06,73088.5,-3.83,-8.29,-8.03,0,*6D
1489053956.33,8600,8.06,73086.3,-3.83,-8.29,-8.21,0,*6E
1489053957.51,8601,8.06,73086.3,-3.83,-8.33,-8.29,0,*6C
1489053958.74,8602,8.06,73086.3,-3.83,-8.07,-7.87,0,*63
1489053959.96,8603,8.06,73074.3,-3.87,-8.51,-8.21,0,*66
1489053961.14,8604,8.06,73086.5,-3.87,-7.83,-7.53,0,*6B
1489053962.35,8605,8.06,73086.3,-3.87,-7.91,-7.53,0,*69
1489053963.59,8606,8.06,73082.8,-3.87,-7.27,-6.97,0,*6E
1489053964.84,8607,8.06,73084.3,-3.87,-7.65,-7.43,0,*61
1489053966.07,8608,8.06,73080.8,-3.87,-7.91,-7.69,0,*6D
1489053967.32,8609,8.06,73068.3,-3.87,-7.77,-7.57,0,*69
1489053968.57,8610,8.06,73078.0,-3.87,-8.07,-8.07,0,*63
1489053969.84,8611,8.06,73084.0,-3.89,-7.99,-7.91,0,*64
1489053971.11,8612,8.06,73078.5,-3.89,-8.07,-7.99,0,*67
1489053972.39,8613,8.06,73074.0,-3.89,-8.07,-8.07,0,*6E
1489053973.61,8614,8.06,73068.3,-3.89,-8.17,-8.17,0,*69
1489053974.8,8615,8.06,73076.3,-3.91,-8.25,-8.25,0,*61
1489053976.02,8616,8.06,73080.5,-3.93,-8.17,-8.21,0,*65
1489053977.24,8617,8.06,73080.3,-3.93,-8.21,-8.29,0,*69
1489053978.45,8618,8.06,73076.8,-3.93,-8.17,-8.29,0,*63
1489053979.64,8619,8.06,73084.0,-3.95,-8.21,-8.29,0,*61
1489053980.88,8620,8.06,73088.0,-3.95,-8.03,-8.11,0,*60
1489053982.15,8621,8.06,73084.8,-3.97,-8.03,-8.03,0,*60
1489053983.37,8622,8.06,73088.5,-3.95,-7.87,-7.91,0,*66
1489053984.64,8623,8.06,73082.8,-3.97,-7.91,-7.95,0,*66
1489053985.91,8624,8.06,73078.3,-3.97,-7.91,-8.11,0,*62
1489053987.11,8625,8.06,73074.0,-3.99,-8.21,-8.37,0,*6D
1489053988.31,8626,8.06,73080.3,-3.99,-7.83,-8.21,0,*6E
1489053989.53,8627,8.06,73090.3,-3.99,-7.77,-8.59,0,*6B
1489053990.75,8628,8.06,73086.5,-3.99,-7.77,-8.97,0,*66
1489053992.0,8629,8.06,73086.8,-3.99,-7.95,-9.53,0,*62
1489053993.24,8630,8.06,73082.3,-3.99,-8.03,-9.45,0,*6D
1489053994.47,8631,8.06,73088.8,-3.97,-8.37,-9.71,0,*62
1489053995.73,8632,8.06,73080.3,-3.97,-9.41,-10.53,0,*59
1489053997.01,8633,8.06,73078.0,-3.97,-9.83,-10.63,0,*55
1489053998.27,8634,8.06,73066.3,-3.97,-9.71,-9.83,0,*69
1489053999.5,8635,8.06,73056.0,-3.97,-9.01,-8.97,0,*6B
1489054000.69,8636,8.06,73056.5,-3.95,-8.67,-8.71,0,*63
1489054001.91,8637,8.06,73072.8,-3.95,-8.97,-9.53,0,*6C
1489054003.17,8638,8.06,73072.0,-3.97,-10.01,-11.07,0,*6F
1489054004.43,8639,8.06,73078.5,-3.97,-10.23,-11.89,0,*68
1489054005.72,8640,8.06,73074.0,-3.97,-10.63,-11.73,0,*67
1489054006.98,8641,8.06,73060.8,-3.97,-10.41,-11.23,0,*63
1489054008.27,8642,8.06,73064.0,-3.97,-10.63,-11.37,0,*65
1489054009.5,8643,8.06,73072.8,-3.99,-10.85,-11.59,0,*6A
1489054010.71,8644,8.06,73074.5,-3.99,-10.27,-11.23,0,*68
1489054011.91,8645,8.06,73078.3,-3.99,-9.97,-11.11,0,*5B
1489054013.11,8646,8.06,73080.5,-3.99,-9.67,-11.11,0,*57
1489054014.35,8647,8.06,73090.0,-3.99,-9.83,-11.77,0,*5C
1489054015.61,8648,8.06,73084.8,-3.99,-10.67,-12.65,0,*61
1489054016.84,8649,8.06,73082.8,-3.99,-11.51,-13.07,0,*61
1489054018.07,8650,8.06,73078.0,-3.99,-12.29,-13.79,0,*6C
1489054019.3,8651,8.06,73084.3,-3.99,-12.43,-13.87,0,*60
1489054020.53,8652,8.06,73086.8,-4.01,-12.93,-14.37,0,*64
1489054021.74,8653,8.06,73080.8,-3.99,-13.15,-14.33,0,*68
1489054022.97,8654,8.06,73076.3,-4.01,-13.65,-14.37,0,*6A
1489054024.21,8655,8.06,73074.5,-3.99,-13.61,-14.65,0,*6E
1489054025.44,8656,8.06,73076.3,-4.01,-13.65,-14.33,0,*6C
1489054026.69,8657,8.06,73062.3,-4.01,-13.37,-13.69,0,*62
1489054027.93,8658,8.06,73062.5,-4.01,-13.19,-13.11,0,*6E
1489054029.16,8659,8.06,73066.5,-4.03,-12.97,-12.83,0,*60
1489054030.36,8660,8.06,73070.5,-4.03,-12.39,-12.25,0,*62
1489054031.62,8661,8.06,73074.8,-4.03,-11.67,-11.85,0,*62
1489054032.85,8662,8.06,73070.0,-4.03,-11.67,-12.25,0,*68
1489054034.06,8663,8.06,73066.3,-4.05,-12.25,-13.69,0,*63
1489054035.3,8664,8.06,73072.3,-4.05,-12.75,-14.15,0,*6D
1489054036.54,8665,8.06,73074.8,-4.05,-13.29,-14.15,0,*64
1489054037.78,8666,8.06,73076.3,-4.05,-13.01,-13.51,0,*6A
1489054039.04,8667,8.06,73074.3,-4.05,-12.71,-13.61,0,*6E
1489054040.29,8668,8.06,73088.3,-4.05,-12.83,-13.87,0,*64
1489054041.52,8669,8.06,73086.3,-4.05,-12.65,-13.51,0,*66
1489054042.76,8670,8.06,73086.8,-4.05,-13.11,-13.97,0,*66
1489054043.97,8671,8.06,73086.5,-4.05,-12.97,-13.15,0,*62
1489054045.18,8672,8.06,73084.5,-4.05,-12.97,-12.43,0,*63
1489054046.42,8673,8.06,73078.3,-4.03,-11.97,-11.01,0,*62
1489054047.68,8674,8.06,73082.5,-4.05,-11.29,-10.75,0,*64
1489054048.92,8675,8.06,73082.3,-4.05,-10.71,-10.57,0,*69
1489054050.15,8676,8.06,73084.5,-4.03,-10.49,-10.71,0,*63
1489054051.36,8677,8.06,73078.0,-4.05,-10.45,-10.49,0,*63
1489054052.57,8678,8.06,73082.5,-4.03,-10.45,-10.45,0,*66
1489054053.77,8679,8.06,73082.8,-4.03,-10.27,-10.05,0,*67
1489054055.0,8680,8.06,73082.0,-4.05,-10.19,-10.19,0,*67
1489054056.2,8681,8.06,73080.3,-4.05,-10.01,-10.23,0,*66
1489054057.41,8682,8.06,73080.8,-4.05,-9.75,-10.19,0,*57
1489054058.63,8683,8.06,73082.5,-4.05,-9.75,-10.01,0,*5F
1489054059.85,8684,8.06,73078.0,-4.03,-9.71,-9.83,0,*68
1489054061.07,8685,8.06,73080.5,-4.03,-9.61,-9.71,0,*65
1489054062.31,8686,8.06,73086.0,-4.01,-9.57,-9.71,0,*61
1489054063.57,8687,8.06,73084.5,-3.99,-9.15,-9.53,0,*60
1489054064.82,8688,8.06,73086.3,-4.01,-8.93,-9.57,0,*62
1489054066.02,8689,8.06,73082.3,-3.99,-8.97,-9.79,0,*6D
1489054067.25,8690,8.06,73084.8,-3.99,-8.89,-9.83,0,*6F
1489054068.46,8691,8.06,73084.0,-3.99,-8.85,-9.97,0,*67
1489054069.67,8692,8.06,73084.3,-3.99,-9.05,-10.09,0,*52
1489054070.93,8693,8.06,73080.5,-3.97,-9.15,-10.23,0,*54
1489054072.17,8694,8.06,73084.8,-3.95,-9.41,-10.35,0,*57
1489054073.37,8695,8.06,73080.8,-3.95,-10.23,-10.89,0,*6D
1489054074.6,8696,8.06,73080.3,-3.95,-10.05,-10.79,0,*65
1489054075.84,8697,8.06,73074.0,-3.93,-9.89,-10.79,0,*5E
1489054077.09,8698,8.06,73078.8,-3.93,-10.49,-11.33,0,*6A
1489054078.34,8699,8.06,73084.3,-3.93,-11.01,-11.59,0,*6A
1489054079.57,8700,8.06,73080.5,-3.95,-10.57,-11.37,0,*67
1489054080.83,8701,8.06,73084.8,-3.93,-10.49,-11.29,0,*60
1489054082.06,8702,8.06,73080.3,-3.93,-10.49,-11.41,0,*6D
1489054083.28,8703,8.06,73078.8,-3.93,-10.45,-11.45,0,*64
1489054084.54,8704,8.06,73082.5,-3.93,-10.93,-11.89,0,*68
1489054085.8,8705,8.06,73082.8,-3.93,-11.15,-11.85,0,*6A
1489054087.05,8706,8.06,73084.8,-3.93,-11.15,-11.89,0,*65
1489054088.31,8707,8.06,73076.8,-3.93,-11.15,-11.73,0,*61
1489054089.54,8708,8.06,73080.8,-3.93,-10.57,-10.93,0,*66
1489054090.79,8709,8.06,73082.3,-3.93,-10.71,-11.45,0,*69
1489054092.02,8710,8.06,73080.0,-3.93,-11.15,-12.25,0,*67
1489054093.28,8711,8.06,73074.0,-3.93,-11.85,-13.11,0,*69
1489054094.51,8712,8.06,73076.3,-3.95,-11.85,-12.97,0,*63
1489054095.74,8713,8.06,73076.0,-3.95,-11.97,-13.23,0,*6F
1489054096.97,8714,8.06,73072.5,-3.97,-12.47,-13.65,0,*66
1489054098.19,8715,8.06,73076.3,-3.95,-13.15,-13.83,0,*6B
1489054099.4,8716,8.06,73078.3,-3.95,-12.89,-13.23,0,*66
1489054100.65,8717,8.06,73080.3,-3.95,-11.97,-12.57,0,*69
1489054101.91,8718,8.06,73072.3,-3.95,-11.59,-12.61,0,*61
1489054103.14,8719,8.06,73078.8,-3.95,-11.45,-12.61,0,*6D
1489054104.38,8720,8.06,73078.8,-3.95,-11.59,-12.89,0,*6C
1489054105.61,8721,8.06,73076.5,-3.95,-11.73,-12.97,0,*6A
1489054106.89,8722,8.06,73082.0,-3.93,-12.61,-13.97,0,*6E
1489054108.17,8723,8.06,73084.3,-3.93,-13.29,-14.55,0,*6B
1489054109.44,8724,8.06,73078.8,-3.93,-13.37,-13.83,0,*6F
1489054110.67,8725,8.06,73080.3,-3.93,-12.97,-13.43,0,*69
1489054111.95,8726,8.06,73078.3,-3.93,-12.61,-12.71,0,*63
1489054113.21,8727,8.06,73076.5,-3.95,-11.67,-11.85,0,*69
1489054114.44,8728,8.06,73076.8,-3.95,-11.41,-11.59,0,*63
1489054115.7,8729,8.06,73072.8,-3.93,-11.41,-11.55,0,*68
1489054116.94,8730,8.06,73078.3,-3.93,-11.41,-11.41,0,*65
1489054118.19,8731,8.06,73084.8,-3.93,-11.19,-11.29,0,*67
1489054119.42,8732,8.06,73076.5,-3.93,-11.19,-11.41,0,*6A
1489054120.65,8733,8.06,73068.8,-3.93,-10.57,-11.15,0,*61
1489054121.87,8734,8.06,73064.0,-3.93,-10.05,-11.19,0,*6D